DW1384 Weather Reports


time (UTC)temp
C
wind
direction
speed
KPH
gust
KPH
rain 1hr
cm
rain 24hr
cm
rain mn
cm
humidity
%
barometer
mb
20260507015318 7 303 0.0 0.0 0.00 0.00 0.00 90 1010.5
20260507014805 7 294 0.0 0.0 0.00 0.00 0.00 90 1010.4
20260507014306 7 297 0.0 0.0 0.00 0.00 0.00 90 1010.4
20260507013806 7 307 0.0 0.0 0.00 0.00 0.00 90 1010.3
20260507013306 7 319 0.0 0.0 0.00 0.00 0.00 90 1010.4
20260507012805 7 298 0.0 0.0 0.00 0.00 0.00 90 1010.4
20260507012533 7 284 0.0 0.0 0.00 0.00 0.00 90 1010.3
20260507011820 7 308 0.0 0.0 0.00 0.00 0.00 90 1010.3
20260507011301 7 291 0.0 0.0 0.00 0.00 0.00 90 1010.3
20260507010801 7 305 0.0 0.0 0.00 0.00 0.00 90 1010.3
20260507010301 7 297 0.0 0.0 0.00 0.00 0.00 90 1010.2
20260507005801 7 292 0.0 0.0 0.00 0.00 0.00 90 1010.2
20260507005259 7 301 0.0 0.0 0.00 0.00 0.00 90 1010.2
20260507004759 7 317 0.0 0.0 0.00 0.00 0.00 90 1010.3
20260507004743 7 316 0.0 0.0 0.00 0.00 0.00 89 1010.2
20260507003758 7 325 0.0 0.0 0.00 0.00 0.00 89 1010.1
20260507003258 7 280 0.0 0.0 0.00 0.00 0.00 89 1010.1
20260507002755 7 292 0.0 0.0 0.00 0.00 0.00 89 1010.1
20260507002516 7 312 0.0 0.0 0.00 0.00 0.00 89 1010.1
20260507001753 7 300 0.0 0.0 0.00 0.00 0.00 89 1010.1
20260507001250 7 309 0.0 0.0 0.00 0.00 0.00 89 1010.0
20260507000804 7 290 0.0 0.0 0.00 0.00 0.00 89 1010.0
20260507000249 7 288 0.0 0.0 0.00 0.00 0.00 89 1010.0
20260506235750 7 303 0.0 0.0 0.00 0.00 0.00 89 1010.0
20260506235258 7 306 0.0 0.0 0.00 0.00 0.00 89 1010.0
20260506235006 7 289 0.0 0.0 0.00 0.00 0.00 89 1010.1
20260506234247 7 303 0.0 0.0 0.00 0.00 0.00 89 1010.0
20260506233744 7 299 0.0 0.0 0.00 0.00 0.00 89 1009.9
20260506233238 7 303 0.0 0.0 0.00 0.00 0.00 89 1009.9
20260506232732 7 297 0.0 0.0 0.00 0.00 0.00 89 1009.9
20260506232226 7 317 0.0 0.0 0.00 0.00 0.00 89 1009.9
20260506231724 7 297 0.0 0.0 0.00 0.00 0.00 89 1009.9
20260506231236 7 317 0.0 0.0 0.00 0.00 0.00 89 1009.9
20260506230723 7 319 0.0 0.0 0.00 0.00 0.00 89 1009.9
20260506230225 7 317 0.0 0.0 0.00 0.00 0.00 89 1009.9
20260506225943 7 313 0.0 0.0 0.00 0.00 0.00 89 1009.8
20260506225222 7 323 0.0 0.0 0.00 0.00 0.00 89 1009.8
20260506224723 7 307 0.0 0.0 0.00 0.00 0.00 89 1009.6
20260506224221 7 353 0.0 0.0 0.00 0.00 0.00 89 1009.6
20260506223721 7 348 0.0 0.0 0.00 0.00 0.00 89 1009.6
20260506223217 7 348 0.0 0.0 0.00 0.00 0.00 89 1009.5
20260506222715 7 348 0.0 0.0 0.00 0.00 0.00 89 1009.6
20260506222441 7 334 0.0 0.0 0.00 0.00 0.00 89 1009.6
20260506221715 7 306 0.0 0.0 0.00 0.00 0.00 89 1009.7
20260506221432 7 303 0.0 0.0 0.00 0.00 0.00 89 1009.6
20260506220715 7 311 0.0 0.0 0.00 0.00 0.00 89 1009.6
20260506220212 7 319 0.0 0.0 0.00 0.00 0.00 89 1009.5
20260506215712 7 336 0.0 0.0 0.00 0.00 0.00 89 1009.5
20260506215210 7 307 0.0 0.0 0.00 0.00 0.00 89 1009.5
20260506214709 7 315 0.0 0.0 0.00 0.00 0.00 89 1009.5
20260506214429 7 1 0.0 0.0 0.00 0.00 0.00 89 1009.5
20260506213707 7 305 0.0 0.0 0.00 0.00 0.00 89 1009.5
20260506213207 8 311 0.0 0.0 0.00 0.00 0.00 89 1009.5
20260506212707 8 309 0.0 0.0 0.00 0.00 0.00 89 1009.4
20260506212206 8 332 0.0 0.0 0.00 0.00 0.00 89 1009.3
20260506211707 8 324 0.0 0.0 0.00 0.00 0.00 89 1009.2
20260506211431 8 272 0.0 0.0 0.00 0.00 0.00 89 1009.2
20260506210707 8 309 0.0 0.0 0.00 0.00 0.00 89 1009.2
20260506210421 8 312 0.0 0.0 0.00 0.00 0.00 89 1009.2
20260506205704 8 305 0.0 0.0 0.00 0.00 0.00 89 1009.1
20260506205203 8 338 0.0 0.0 0.00 0.00 0.00 89 1009.1
20260506204702 8 324 0.0 0.0 0.00 0.00 0.00 89 1009.1
20260506204204 8 303 0.0 0.0 0.00 0.00 0.00 89 1009.1
20260506203702 8 348 0.0 0.0 0.00 0.00 0.00 89 1008.9
20260506203202 8 334 0.0 0.0 0.00 0.00 0.00 89 1008.9
20260506202702 8 332 0.0 0.0 0.00 0.00 0.00 89 1008.8
20260506202202 8 303 0.0 0.0 0.00 0.00 0.00 89 1008.8
20260506201701 8 303 0.0 0.0 0.00 0.00 0.00 88 1008.7
20260506201159 8 312 0.0 0.0 0.00 0.00 0.00 88 1008.7
20260506200658 8 307 0.0 0.0 0.00 0.00 0.00 88 1008.6
20260506200158 8 305 0.0 0.0 0.00 0.00 0.00 88 1008.6
20260506195658 8 313 0.0 0.0 0.00 0.00 0.00 88 1008.5
20260506195158 8 311 0.0 0.0 0.00 0.00 0.00 88 1008.6
20260506194658 8 324 0.0 0.0 0.00 0.00 0.00 88 1008.5
20260506194158 8 348 0.0 0.0 0.00 0.00 0.00 88 1008.6
20260506193700 8 330 0.0 0.0 0.00 0.00 0.00 88 1008.6
20260506193156 8 292 0.0 0.0 0.00 0.00 0.00 88 1008.6
20260506192654 8 311 0.0 0.0 0.00 0.00 0.00 88 1008.6
20260506192155 8 303 0.0 0.0 0.00 0.00 0.00 88 1008.5
20260506191654 8 290 0.0 0.0 0.00 0.00 0.00 88 1008.5
20260506191154 8 284 0.0 0.0 0.00 0.00 0.00 88 1008.4
20260506190654 8 320 0.0 0.0 0.00 0.00 0.00 88 1008.4
20260506190154 8 320 0.0 0.0 0.00 0.00 0.00 88 1008.2
20260506185914 8 348 0.0 0.0 0.00 0.00 0.00 88 1008.1
20260506185155 8 0 0.0 0.0 0.00 0.00 0.00 88 1008.1
20260506184650 8 338 0.0 0.0 0.00 0.00 0.00 88 1008.0
20260506184409 8 306 0.0 0.0 0.00 0.00 0.00 88 1007.9
20260506183652 8 318 0.0 0.0 0.00 0.00 0.00 88 1007.8
20260506183150 8 353 0.0 0.0 0.00 0.00 0.00 88 1007.8
20260506182910 8 290 0.0 0.0 0.00 0.00 0.00 88 1007.8
20260506182150 8 303 0.0 0.0 0.00 0.00 0.00 88 1007.8
20260506181650 8 297 0.0 0.0 0.00 0.00 0.00 88 1007.8
20260506181150 8 317 0.0 0.0 0.00 0.00 0.00 88 1007.7
20260506180650 8 359 0.0 0.0 0.00 0.00 0.00 88 1007.7
20260506180146 8 335 0.0 0.0 0.00 0.00 0.00 88 1007.7
20260506175648 8 359 0.0 0.0 0.00 0.00 0.00 88 1007.6
20260506175415 8 326 0.0 0.0 0.00 0.00 0.00 88 1007.5
20260506174647 8 348 0.0 0.0 0.00 0.00 0.00 88 1007.5
20260506174146 8 338 0.0 0.0 0.00 0.00 0.00 88 1007.4
20260506173647 8 324 0.0 0.0 0.00 0.00 0.00 88 1007.3
20260506173147 8 305 0.0 0.0 0.00 0.00 0.00 88 1007.4
20260506172648 8 307 0.0 0.0 0.00 0.00 0.00 88 1007.3
20260506172146 8 271 0.0 0.0 0.00 0.00 0.00 88 1007.3
20260506171642 8 299 0.0 0.0 0.00 0.00 0.00 88 1007.2
20260506171142 8 299 0.0 0.0 0.00 0.00 0.00 88 1007.2
20260506170643 8 313 0.0 0.0 0.00 0.00 0.00 88 1007.2
20260506170144 8 303 0.0 0.0 0.00 0.00 0.00 88 1007.2
20260506165643 8 303 0.0 0.0 0.00 0.00 0.00 88 1007.2
20260506165145 8 321 0.0 0.0 0.00 0.00 0.00 88 1007.1
20260506164908 8 343 0.0 0.0 0.00 0.00 0.00 88 1007.0
20260506164143 8 338 0.0 0.0 0.00 0.00 0.00 88 1007.0
20260506163642 8 335 0.0 0.0 0.00 0.00 0.00 88 1006.9
20260506163138 8 309 0.0 0.0 0.00 0.00 0.00 88 1007.0
20260506162638 8 307 0.0 0.0 0.00 0.00 0.00 88 1006.9
20260506162409 8 334 0.0 0.0 0.00 0.00 0.00 88 1007.0
20260506161651 8 324 0.0 0.0 0.00 0.00 0.00 88 1007.0
20260506161153 8 359 0.0 0.0 0.00 0.00 0.00 88 1007.0
20260506160651 8 357 0.0 0.0 0.00 0.00 0.00 88 1007.0
20260506160152 8 348 0.0 0.0 0.00 0.00 0.00 88 1006.9
20260506155917 8 331 0.0 0.0 0.00 0.00 0.00 88 1006.8
20260506155400 8 317 0.0 0.0 0.00 0.00 0.00 88 1006.9
20260506154638 8 308 0.0 0.0 0.00 0.00 0.00 88 1006.8
20260506154138 8 313 0.0 0.0 0.00 0.00 0.00 87 1006.8
20260506153638 8 288 0.0 0.0 0.00 0.00 0.00 87 1006.7
20260506153137 8 326 0.0 0.0 0.00 0.00 0.00 87 1006.8
20260506152634 9 303 0.0 0.0 0.00 0.00 0.00 87 1006.7
20260506152134 9 343 0.0 0.0 0.00 0.00 0.00 87 1006.7
20260506151635 9 335 0.0 0.0 0.00 0.00 0.00 87 1006.7
20260506151352 9 319 0.0 0.0 0.00 0.00 0.00 87 1006.7
20260506150850 9 325 0.0 0.0 0.00 0.00 0.00 87 1006.7
20260506150348 9 8 0.0 0.0 0.00 0.00 0.00 87 1006.7
20260506145628 9 353 0.0 0.0 0.00 0.00 0.00 86 1006.7
20260506145128 9 353 0.0 0.0 0.00 0.00 0.00 86 1006.7
20260506144855 9 321 0.0 0.0 0.00 0.00 0.00 86 1006.6
20260506144128 9 326 0.0 0.0 0.00 0.00 0.00 87 1006.5
20260506143852 9 336 0.0 0.0 0.00 0.00 0.00 87 1006.4
20260506143128 10 357 0.0 0.0 0.00 0.00 0.00 87 1006.4
20260506142627 10 353 0.0 0.0 0.00 0.00 0.00 87 1006.4
20260506142124 10 30 0.0 0.0 0.00 0.00 0.00 87 1006.4
20260506141624 10 359 0.0 0.0 0.00 0.00 0.00 87 1006.4
20260506141119 10 305 0.0 0.0 0.00 0.00 0.00 87 1006.4
20260506140611 10 332 0.0 0.0 0.00 0.00 0.00 87 1006.5
20260506140109 10 30 0.0 0.0 0.00 0.00 0.00 87 1006.4
20260506135821 10 343 0.0 0.0 0.00 0.00 0.00 87 1006.3
20260506135315 10 328 0.0 0.0 0.00 0.00 0.00 87 1006.2
20260506134549 10 321 0.0 0.0 0.00 0.00 0.00 87 1006.2
20260506134041 10 335 0.0 0.0 0.00 0.00 0.00 87 1006.3
20260506133535 10 331 0.0 0.0 0.00 0.00 0.00 87 1006.2
20260506133029 10 301 0.0 0.0 0.00 0.00 0.00 87 1006.2
20260506132523 10 316 0.0 0.0 0.00 0.00 0.00 87 1006.1
20260506132031 10 3 0.0 0.0 0.00 0.00 0.00 87 1006.1
20260506131512 10 295 0.0 0.0 0.00 0.00 0.00 87 1006.0
20260506131006 10 359 0.0 0.0 0.00 0.00 0.00 86 1006.0
20260506130459 10 309 0.0 0.0 0.00 0.00 0.00 86 1006.0
20260506125953 10 301 0.0 0.0 0.00 0.00 0.00 85 1006.0
20260506125708 11 317 0.0 0.0 0.00 0.00 0.00 85 1005.9
20260506124948 11 317 0.0 0.0 0.00 0.00 0.00 85 1005.9
20260506124712 11 305 0.0 0.0 0.00 0.00 0.00 85 1005.9
20260506123948 11 287 0.0 0.0 0.00 0.00 0.00 85 1005.9
20260506123448 11 301 0.0 0.0 0.00 0.00 0.00 85 1005.9
20260506122948 11 348 0.0 0.0 0.00 0.00 0.00 85 1005.9
20260506122449 11 327 0.0 0.0 0.00 0.00 0.00 85 1005.9
20260506121948 11 316 0.0 0.0 0.00 0.00 0.00 85 1005.8
20260506121448 11 309 0.0 0.0 0.00 0.00 0.00 85 1005.8
20260506120946 11 313 0.0 0.0 0.00 0.00 0.00 85 1005.8
20260506120448 11 316 0.0 0.0 0.00 0.00 0.00 85 1005.8
20260506115947 11 310 0.0 0.0 0.00 0.00 0.00 85 1005.7
20260506115444 11 348 0.0 0.0 0.00 0.00 0.00 85 1005.6
20260506114944 11 337 0.0 0.0 0.00 0.00 0.00 85 1005.6
20260506114445 11 343 0.0 0.0 0.00 0.00 0.00 84 1005.5
20260506113943 11 334 0.0 0.0 0.00 0.00 0.00 85 1005.5
20260506113437 11 18 0.0 0.0 0.00 0.00 0.00 85 1005.5
20260506112929 11 30 0.0 0.0 0.00 0.00 0.00 85 1005.5
20260506112424 11 299 0.0 0.0 0.00 0.00 0.00 85 1005.5
20260506112144 11 1 0.0 0.0 0.00 0.00 0.00 85 1005.6
20260506111633 12 324 0.0 0.0 0.00 0.00 0.00 85 1005.5
20260506111123 12 22 0.0 0.0 0.00 0.00 0.00 85 1005.5
20260506110359 11 302 0.0 0.0 0.00 0.00 0.00 85 1005.5
20260506105853 11 296 0.0 0.0 0.00 0.00 0.00 85 1005.4
20260506105348 11 318 0.0 0.0 0.00 0.00 0.00 85 1005.3
20260506105105 11 309 0.0 0.0 0.00 0.00 0.00 85 1005.4
20260506104336 12 269 0.0 0.0 0.00 0.00 0.00 85 1005.4
20260506103829 12 306 0.0 0.0 0.00 0.00 0.00 85 1005.4
20260506103324 12 270 0.0 0.0 0.00 0.00 0.00 85 1005.4
20260506102818 12 294 0.0 0.0 0.00 0.00 0.00 85 1005.3
20260506102311 12 343 0.0 0.0 0.00 0.00 0.00 86 1005.3
20260506102022 12 336 0.0 0.0 0.00 0.00 0.00 86 1005.3
20260506101521 12 305 0.0 0.0 0.00 0.00 0.00 86 1005.2
20260506100753 12 10 0.0 0.0 0.00 0.00 0.00 87 1005.2
20260506100734 11 318 0.0 0.0 0.00 0.00 0.00 87 1005.1
20260506095742 11 330 0.0 0.0 0.00 0.00 0.00 87 1005.1
20260506095718 11 284 0.0 0.0 0.00 0.00 0.00 88 1005.1
20260506094730 11 273 0.0 0.0 0.00 0.00 0.00 88 1005.1
20260506094223 11 255 0.0 0.0 0.00 0.00 0.00 88 1005.0
20260506093717 12 339 0.0 0.0 0.00 0.00 0.00 88 1005.0
20260506093435 11 15 0.0 0.0 0.00 0.00 0.00 88 1005.1
20260506092708 11 294 0.0 0.0 0.00 0.00 0.00 88 1005.2
20260506092208 11 7 0.0 0.0 0.00 0.00 0.00 88 1005.1
20260506091708 11 320 0.0 0.0 0.00 0.00 0.00 89 1005.1
20260506091208 11 321 0.0 0.0 0.00 0.00 0.00 89 1005.1
20260506090709 11 326 0.0 0.0 0.00 0.00 0.00 89 1005.1
20260506090206 11 7 0.0 0.0 0.00 0.00 0.00 89 1005.1
20260506085706 11 337 0.0 0.0 0.00 0.00 0.00 89 1005.1
20260506085207 11 3 0.0 0.0 0.00 0.00 0.00 89 1005.0
20260506084704 11 353 0.0 0.0 0.00 0.00 0.00 89 1004.9
20260506084202 11 343 0.0 0.0 0.00 0.00 0.00 89 1004.9
20260506083702 11 336 0.0 0.0 0.00 0.00 0.00 89 1004.8
20260506083202 11 6 0.0 0.0 0.00 0.00 0.00 89 1004.8
20260506082920 11 330 0.0 0.0 0.00 0.00 0.00 89 1004.7
20260506082410 11 319 0.0 0.0 0.00 0.00 0.00 90 1004.5
20260506082120 11 7 0.0 0.0 0.00 0.00 0.00 90 1004.5
20260506081125 11 325 0.0 0.0 0.00 0.00 0.00 90 1004.6
20260506080615 11 358 0.0 0.0 0.00 0.00 0.00 90 1004.5
20260506080116 11 24 0.0 0.0 0.00 0.00 0.00 90 1004.6
20260506073516 11 305 0.0 0.0 0.00 0.00 0.00 90 1004.6
20260506073001 11 353 0.0 0.0 0.00 0.00 0.00 90 1004.6
20260506072453 11 348 0.0 0.0 0.00 0.00 0.00 90 1004.6
20260506071939 10 348 0.0 0.0 0.00 0.00 0.00 90 1004.6
20260506071431 10 319 0.0 0.0 0.00 0.00 0.00 90 1004.6
20260506070919 10 332 0.0 0.0 0.00 0.00 0.00 90 1004.6
20260506070403 11 358 0.0 0.0 0.00 0.00 0.00 90 1004.7
20260506062129 10 333 0.0 0.0 0.00 0.00 0.00 90 1004.5
20260506061625 10 329 0.0 0.0 0.00 0.00 0.00 90 1004.4
20260506061128 10 330 0.0 0.0 0.00 0.00 0.00 90 1004.4
20260506060638 10 328 0.0 0.0 0.00 0.00 0.00 90 1004.4
20260506060127 10 343 0.0 0.0 0.00 0.00 0.00 90 1004.4
20260506051127 10 293 0.0 0.0 0.00 0.00 0.00 90 1004.3
20260506050627 10 290 0.0 0.0 0.00 0.00 0.00 90 1004.4
20260506050125 10 289 0.0 0.0 0.00 0.00 0.00 90 1004.3
20260506050103 10 296 0.0 0.0 0.00 0.00 0.00 90 1004.3
20260506045126 10 294 0.0 0.0 0.00 0.00 0.00 90 1004.3
20260506044625 10 296 0.0 0.0 0.00 0.00 0.00 90 1004.3
20260506044123 10 300 0.0 0.0 0.00 0.00 0.00 90 1004.3
20260506043619 10 304 0.0 0.0 0.00 0.00 0.00 90 1004.3
20260506043119 10 309 0.0 0.0 0.00 0.00 0.00 90 1004.3
20260506042621 10 302 0.0 0.0 0.00 0.00 0.00 90 1004.3
20260506042119 11 297 0.0 0.0 0.00 0.00 0.00 90 1004.3
20260506041618 11 297 0.0 0.0 0.00 0.00 0.00 90 1004.3
20260506041118 11 297 0.0 0.0 0.00 0.00 0.00 90 1004.3
20260506040619 11 297 0.0 0.0 0.00 0.00 0.00 90 1004.3
20260506040118 11 305 0.0 0.0 0.00 0.00 0.00 90 1004.3
20260506035617 11 307 0.0 0.0 0.00 0.00 0.00 90 1004.3
20260506035336 11 302 0.0 0.0 0.00 0.00 0.00 90 1004.3
20260506034618 11 295 0.0 0.0 0.00 0.00 0.00 90 1004.3
20260506034118 11 271 0.0 0.0 0.00 0.00 0.00 90 1004.3
20260506033619 11 290 0.0 0.0 0.00 0.00 0.00 90 1004.3
20260506033118 11 294 0.0 0.0 0.00 0.00 0.00 90 1004.3
20260506032617 11 294 0.0 0.0 0.00 0.00 0.00 90 1004.3
20260506032118 11 293 0.0 0.0 0.00 0.00 0.00 90 1004.3
20260506031618 11 294 0.0 0.0 0.00 0.00 0.00 90 1004.3
20260506031607 11 294 0.0 0.0 0.00 0.00 0.00 90 1004.2
20260506030617 11 294 0.0 0.0 0.00 0.00 0.00 90 1004.2
20260506030122 11 297 0.0 0.0 0.00 0.00 0.00 90 1004.3
20260506025631 11 266 0.0 0.0 0.00 0.00 0.00 90 1004.4
20260506025117 11 263 0.0 0.0 0.00 0.00 0.00 90 1004.4
20260506024618 11 278 0.0 0.0 0.00 0.00 0.00 90 1004.4
20260506024348 11 281 0.0 0.0 0.00 0.00 0.00 90 1004.4
20260506023620 11 304 0.0 0.0 0.00 0.00 0.00 90 1004.3
20260506023342 11 304 0.0 0.0 0.00 0.00 0.00 90 1004.2
20260506022619 11 298 0.0 0.0 0.00 0.00 0.00 90 1004.3
20260506022602 11 284 0.0 0.0 0.00 0.00 0.00 90 1004.5
20260506021614 11 279 0.0 0.0 0.00 0.00 0.00 90 1004.5
20260506021115 11 272 0.0 0.0 0.00 0.00 0.00 90 1004.6
20260506020613 11 259 0.0 0.0 0.00 0.00 0.00 90 1004.6
20260506020115 11 258 0.0 0.0 0.00 0.00 0.00 90 1004.6
20260506015613 11 267 0.0 0.0 0.00 0.00 0.00 90 1004.6